Powrót do katalogu

GEISAT PRECURSOR

AktywnyNaukaSSO
NORAD 56934·PAYLOAD·🇪🇸 Spain

Wystrzelony Jun 12, 2023 z Vandenberg Space Force Base

Loading…

Następne Przeloty (najbliższe 24 godziny)

TLE

ŚwieżeSource: Space-Track

Epoka: Sep 14, 2026, 15:29 UTC

1 56934U 23084C   26257.64533353  .00005887  00000-0  17174-3 0  9999
2 56934  97.6352  41.6850 0006000  38.3239 321.8429 15.35744620181252

Śledź GEISAT PRECURSOR w czasie rzeczywistym z AllMySat

Download on the App Store